Tracking 22081 objects as of 5-Dec-2020
HD Live streaming from Space Station
objects crossing your sky now

SL-24 DEB


SL-24 DEB is no longer on orbit


NORAD ID: 35687
Int'l Code: 2009-041G
Perigee: N/A
Apogee: N/A
Inclination: N/A
Period: N/A
Semi major axis: N/A
RCS: N/A
Launch date: July 29, 2009
Source: Commonwealth of Independent States (former USSR) (CIS)
Launch site: TYURATAM MISSILE AND SPACE COMPLEX (TTMTR)
Decay date: 2012-11-20

Note: This is SATELLITE DEBRIS
aabbcc
Your satellite tracking list
Your tracking list is empty




NASA's NSSDC Master Catalog

Two Line Element Set (TLE):
1 35687U 09041G   12325.01530735  .28763046  29186-5  12255-1 0  9993
2 35687 098.0950 288.0740 0012483 163.9238 196.6989 16.22636438181437
Source of the keplerian elements: AFSPC